Weather History for Pagosa Springs, CO

Change the Weather History Date:

Thursday, August 8, 2013

  Actual Average (KDRO) Record (KDRO)
Temperature  
Mean Temperature 56 °F 69 °F  
Max Temperature 64 °F 84 °F 92 °F (1983)
Min Temperature 49 °F 53 °F 43 °F (2011)
Degree Days  
Heating Degree Days 8 0  
Month to date heating degree days 0  
Since 1 June heating degree days 125  
Since 1 July heating degree days 10  
Cooling Degree Days 0 4  
Month to date cooling degree days 33  
Year to date cooling degree days 184  
Since 1 June cooling degree days 183  
Growing Degree Days 6 (Base 50)    
Moisture  
Dew Point 49 °F    
Average Humidity 80    
Maximum Humidity 98    
Minimum Humidity 51    
Precipitation  
Precipitation 0.00 in 0.07 in 0.17 in (1976)
Month to date precipitation 0.66  
Year to date precipitation 8.45  
Sea Level Pressure  
Sea Level Pressure 30.29 in    
Wind  
Wind Speed 2 mph (NNW)    
Max Wind Speed 17 mph    
Max Gust Speed 25 mph    
Visibility 10 miles    
Events Rain , Thunderstorm    
T = Trace of Precipitation, MM = Missing Value Source: NWS Daily Summary

Daily Weather History Graph

Daily Weather History Graph

Search for Another Location

Airport:

Trip Planner

Search our weather history database for the weather conditions in past years. The results will help you decide how hot, cold, wet, or windy it might be!

Date:

Astronomy

Aug. 08, 2013 Rise Set
Actual Time 6:18 AM MDT 8:08 PM MDT
Civil Twilight 5:50 AM MDT 8:36 PM MDT
Nautical Twilight 5:16 AM MDT 9:10 PM MDT
Astronomical Twilight 4:39 AM MDT 9:46 PM MDT
Moon 8:04 AM MDT (8/8) 8:52 PM MDT (8/8)
Length of Visible Light 14h 45m
Length of Day
13h 49m
Waxing Crescent, 3% of the Moon is Illuminated
Aug 8
Waxing Crescent
Aug 14
First Quarter
Aug 20
Full
Aug 28
Last Quarter
Sep 5
New

Hourly Weather History & Observations

Time (MDT) Temp. Dew Point Humidity Pressure Visibility Wind Dir Wind Speed Gust Speed Precip Events Conditions
12:15 AM 52.9 °F 50.5 °F 92% 30.27 in 10.0 mi Calm Calm - N/A   Overcast
12:35 AM 52.2 °F 50.9 °F 95% 30.27 in 10.0 mi Calm Calm - N/A   Scattered Clouds
12:55 AM 51.8 °F 50.4 °F 95% 30.26 in 10.0 mi Calm Calm - N/A   Clear
1:15 AM 50.4 °F 49.5 °F 97% 30.26 in 10.0 mi Calm Calm - N/A   Clear
1:35 AM 50.7 °F 49.8 °F 97% 30.26 in 10.0 mi Calm Calm - N/A   Clear
1:55 AM 49.6 °F 49.1 °F 98% 30.25 in 10.0 mi Calm Calm - N/A   Clear
2:15 AM 49.8 °F 49.1 °F 97% 30.25 in 10.0 mi Calm Calm - N/A   Scattered Clouds
2:35 AM 49.5 °F 48.7 °F 97% 30.25 in 10.0 mi Calm Calm - N/A   Overcast
2:55 AM 50.0 °F 49.3 °F 97% 30.25 in 10.0 mi Calm Calm - N/A   Overcast
3:15 AM 50.4 °F 49.6 °F 97% 30.24 in 10.0 mi Calm Calm - N/A   Overcast
3:35 AM 50.4 °F 49.6 °F 97% 30.24 in 10.0 mi Calm Calm - N/A   Overcast
3:55 AM 50.9 °F 50.0 °F 97% 30.25 in 10.0 mi Calm Calm - N/A   Overcast
4:15 AM 51.3 °F 50.2 °F 96% 30.24 in 10.0 mi Calm Calm - N/A Rain Light Rain
4:35 AM 51.3 °F 50.2 °F 96% 30.24 in 10.0 mi Calm Calm - N/A Rain Rain
4:55 AM 50.9 °F 50.0 °F 97% 30.23 in 10.0 mi Calm Calm - N/A   Scattered Clouds
5:15 AM 50.9 °F 50.0 °F 97% 30.24 in 10.0 mi Calm Calm - N/A   Clear
5:35 AM 51.8 °F 50.2 °F 94% 30.24 in 10.0 mi Calm Calm - N/A   Clear
5:55 AM 51.1 °F 49.8 °F 95% 30.25 in 10.0 mi Calm Calm - N/A   Mostly Cloudy
6:15 AM 50.2 °F 49.5 °F 97% 30.26 in 10.0 mi Calm Calm - N/A   Overcast
6:35 AM 50.4 °F 49.6 °F 97% 30.26 in 10.0 mi Calm Calm - N/A   Overcast
6:55 AM 50.4 °F 49.8 °F 98% 30.26 in 10.0 mi Calm Calm - N/A   Scattered Clouds
7:15 AM 51.4 °F 50.0 °F 95% 30.26 in 10.0 mi Calm Calm - N/A   Mostly Cloudy
7:35 AM 52.0 °F 50.2 °F 94% 30.26 in 10.0 mi Calm Calm - N/A   Mostly Cloudy
7:55 AM 51.8 °F 50.2 °F 94% 30.27 in 10.0 mi Calm Calm - N/A   Scattered Clouds
8:15 AM 52.7 °F 50.5 °F 92% 30.27 in 10.0 mi NE 3.5 mph - N/A   Mostly Cloudy
8:35 AM 53.1 °F 49.8 °F 89% 30.27 in 10.0 mi Calm Calm - N/A   Overcast
8:55 AM 53.6 °F 50.5 °F 89% 30.27 in 10.0 mi Calm Calm - N/A   Overcast
9:15 AM 54.5 °F 50.5 °F 86% 30.28 in 10.0 mi Calm Calm - N/A   Scattered Clouds
9:35 AM 55.6 °F 50.0 °F 81% 30.28 in 10.0 mi SW 3.5 mph - N/A   Mostly Cloudy
9:55 AM 56.7 °F 49.6 °F 77% 30.29 in 10.0 mi SSE 3.5 mph - N/A   Overcast
10:15 AM 57.6 °F 51.3 °F 79% 30.29 in 10.0 mi Calm Calm - N/A   Overcast
10:35 AM 57.6 °F 53.6 °F 87% 30.30 in 10.0 mi East 3.5 mph - N/A   Overcast
10:55 AM 57.0 °F 53.1 °F 87% 30.30 in 10.0 mi Calm Calm - N/A   Overcast
11:15 AM 57.4 °F 53.1 °F 85% 30.30 in 10.0 mi Calm Calm - N/A Thunderstorm Thunderstorm
11:35 AM 57.4 °F 50.9 °F 79% 30.30 in 10.0 mi SSE 3.5 mph - N/A Thunderstorm Thunderstorm
11:55 AM 57.4 °F 51.3 °F 80% 30.30 in 10.0 mi Calm Calm - N/A Thunderstorm Thunderstorm
12:15 PM 58.1 °F 51.3 °F 78% 30.31 in 10.0 mi South 4.6 mph - N/A Thunderstorm Thunderstorm
12:35 PM 58.1 °F 52.2 °F 81% 30.31 in 10.0 mi SSE 6.9 mph - N/A Thunderstorm Scattered Clouds
12:55 PM 58.1 °F 51.6 °F 79% 30.31 in 10.0 mi South 5.8 mph - N/A Thunderstorm Thunderstorm
1:15 PM 58.1 °F 50.2 °F 75% 30.32 in 10.0 mi SSW 4.6 mph - N/A Thunderstorm Thunderstorm
1:35 PM 58.1 °F 50.2 °F 75% 30.31 in 10.0 mi South 3.5 mph - N/A Thunderstorm Thunderstorm
1:55 PM 58.6 °F 49.3 °F 71% 30.31 in 10.0 mi SSW 3.5 mph - N/A Thunderstorm Thunderstorm
2:15 PM 59.7 °F 48.4 °F 66% 30.31 in 10.0 mi Calm Calm - N/A Thunderstorm Thunderstorm
2:35 PM 60.6 °F 45.9 °F 58% 30.30 in 10.0 mi Calm Calm - N/A Thunderstorm Scattered Clouds
2:55 PM 62.8 °F 48.7 °F 60% 30.30 in 10.0 mi NW 4.6 mph - N/A Thunderstorm Thunderstorm
3:15 PM 64.0 °F 45.7 °F 51% 30.30 in 10.0 mi West 5.8 mph - N/A   Overcast
3:35 PM 60.1 °F 45.1 °F 58% 30.31 in 10.0 mi NW 10.4 mph - N/A Thunderstorm Overcast
3:55 PM 56.7 °F 47.5 °F 71% 30.31 in 10.0 mi NNW 11.5 mph 20.7 mph N/A   Overcast
4:15 PM 56.5 °F 46.9 °F 70% 30.30 in 10.0 mi NNW 10.4 mph 19.6 mph N/A   Light Drizzle
4:35 PM 56.3 °F 46.9 °F 71% 30.30 in 10.0 mi NW 17.3 mph 25.3 mph N/A   Overcast
4:55 PM 55.8 °F 46.4 °F 71% 30.30 in 10.0 mi NW 13.8 mph 23.0 mph N/A   Overcast
5:15 PM 56.1 °F 45.0 °F 66% 30.29 in 10.0 mi NW 12.7 mph 23.0 mph N/A   Overcast
5:35 PM 56.8 °F 44.6 °F 64% 30.30 in 10.0 mi NNW 5.8 mph - N/A   Overcast
5:55 PM 58.1 °F 43.9 °F 59% 30.29 in 10.0 mi North 4.6 mph - N/A   Overcast
6:15 PM 59.4 °F 44.6 °F 58% 30.28 in 10.0 mi North 5.8 mph - N/A   Mostly Cloudy
6:35 PM 59.2 °F 48.7 °F 68% 30.28 in 10.0 mi NE 3.5 mph - N/A   Scattered Clouds
6:55 PM 59.0 °F 49.8 °F 72% 30.29 in 10.0 mi Calm Calm - N/A   Mostly Cloudy
7:15 PM 59.0 °F 50.2 °F 73% 30.30 in 10.0 mi WNW 4.6 mph - N/A   Overcast
7:35 PM 57.4 °F 49.5 °F 75% 30.31 in 10.0 mi Calm Calm - N/A   Overcast
7:55 PM 56.8 °F 49.5 °F 76% 30.31 in 10.0 mi Calm Calm - N/A Rain Light Rain
8:15 PM 56.3 °F 48.4 °F 75% 30.31 in 10.0 mi Calm Calm - N/A Thunderstorm Mostly Cloudy
8:35 PM 55.8 °F 48.7 °F 77% 30.31 in 10.0 mi NE 4.6 mph - N/A   Scattered Clouds
8:55 PM 58.1 °F 44.8 °F 61% 30.31 in 10.0 mi NE 9.2 mph - N/A   Mostly Cloudy
9:15 PM 55.9 °F 47.8 °F 74% 30.31 in 10.0 mi NE 4.6 mph - N/A   Overcast
9:35 PM 57.2 °F 44.4 °F 62% 30.32 in 10.0 mi NNE 4.6 mph - N/A   Mostly Cloudy
9:55 PM 57.2 °F 43.3 °F 60% 30.33 in 10.0 mi North 4.6 mph - N/A   Scattered Clouds
10:15 PM 56.8 °F 44.2 °F 63% 30.33 in 10.0 mi NNW 3.5 mph - N/A   Scattered Clouds
10:35 PM 57.6 °F 41.4 °F 55% 30.33 in 10.0 mi NNE 3.5 mph - N/A   Clear
10:55 PM 56.3 °F 42.3 °F 59% 30.33 in 10.0 mi Calm Calm - N/A   Clear
11:15 PM 54.9 °F 43.2 °F 65% 30.33 in 10.0 mi Calm Calm - N/A   Clear
11:35 PM 52.3 °F 46.0 °F 79% 30.33 in 10.0 mi West 3.5 mph - N/A   Clear
11:55 PM 52.5 °F 47.3 °F 82% 30.34 in 10.0 mi Calm Calm - N/A   Clear